Location: ??
(35.5052°N, 139.7262°E)
Time: 18:15:26
(UTC+00:00)

Resurs 1-4 Rocket - Pass Details

Date: 20 June 2021
Orbit: 800 x 813 km, 98.6° (Epoch: 29 July)

Event Time Altitude Azimuth Distance (km) Brightness Sun altitude
Rises 14:47:22 0° 38° (NE) 3,339 6.0 -31.0°
Reaches altitude 10° 14:51:13 10° 66° (ENE) 2,403 4.8 -31.0°
Enters shadow 14:52:59 13° 86° (E) 2,222 4.4 -31.0°
